Location: �chenoz-la-M�line
(47.6009°N, 6.1354°E)
Time: 09:06:28
(UTC+00:00)

Cosmos 1814 Rocket - Pass Details

Date: 10 May 2021
Orbit: 745 x 786 km, 74.1° (Epoch: 21 June)

Event Time Altitude Azimuth Distance (km) Brightness Sun altitude
Rises 19:57:22 0° 325° (NW) 3,241 9.0 -8.9°
Reaches altitude 10° 20:00:21 10° 308° (NW) 2,302 8.2 -9.3°
Maximum altitude 20:03:58 19° 264° (W) 1,731 6.4 -9.7°
Drops below altitude 10° 20:07:33 10° 219° (SW) 2,272 6.4 -10.2°
Sets 20:10:29 0° 203° (SSW) 3,185 7.0 -10.6°
